STARLINK-35910, 67184

Orbit data source: Space-Track

STARLINK-35910, 67184 is a payload satellite owned by SpaceX/Seattle (US) in LEO that was launched on Wed, 17 Dec 2025 UTC via an FALCON 9 launch vehicle from the Air Force Eastern Test Range (AFETR). Payload-class satellites include a variety of spacecraft equipped with specific instruments for various scientific and technological missions. These include communications satellites like Starlink; space stations such as the ISS; scientific satellites like the Hubble; Earth observation satellites from companies like Planet Labs, Umbra, and HawkEye 360; GPS; miniature CubeSats for education and research; and military/defense satellites.

Loading next visibility...
Identifier
67184, 2025-303X
Orbit
LEO
Country
Flag of USUS
Related business
Manufacturer
SpaceX/Seattle
Mission
Operational Commercial Communications
Bus & Motor
STARLINK V2MO, Unknown motor
Mass
575 kg wet, ~530 kg dry
Launch date (UTC)
2025-12-17 (6 months ago)
Launch vehicle
FALCON 9
Launch site
Air Force Eastern Test Range (AFETR)
Object type
Payload
Rocket body
Debris
Shape & HBR
Box + 2 Pan, 17.7 m
Radar Cross Section
36.964 m², Large (>1 m²)

Expand to show TLE details & history
Last TLE update: 1 day ago

TLE from 1 day ago
0 STARLINK-35910
1 67184U 25303X   26170.52109480  .00032646  00000-0  11898-2 0  9994
2 67184  43.0029  95.2174 0001066 266.2876  93.7854 15.27601041 28311
Epoch: 2026-06-19T12:30Z
TLE epoch observation values (Epoch: 2026-06-19T12:30:22.590Z)
Latitude
-0.00002°
Longitude
-0.12562°
Altitude
482.81 km
Speed
7.626 km/s
True Right ascension
06h 20m 52s
True Declination
0° 00' 00"
Sunlit
Object was in daylight at epoch
Visualization orbit readout
Latitude
Unknown
Longitude
Unknown
Altitude
Unknown
Speed
Unknown
Apparent Right ascension
Unknown
Apparent Declination
Unknown
Sunlit
N/A
Visualization observer readout
Local Sidereal Time
07:17:27
Azimuth
Unknown
Elevation
Unknown
Doppler factor
Unknown
Orbital elements
Apogee altitude
485.662 km
Perigee altitude
484.199 km
Semi-major axis
6,863.068 km
Eccentricity
0.00011
Inclination
43.0029°
RAAN
95.2174°
Arg. of periapsis
266.2876°
True anomaly
93.79759°
Mean anomaly
93.7854°
Eccentric anomaly
93.79149°
Mean motion
3.81738 °/min
Orbital period
94.31 mins
BSTAR
0.0011898
Loading maneuver chart data...
Computing Atmospheric mass density...
Loading historical data...
Loading historical data...
Loading historical data...
Loading historical data...
Loading historical data...
Loading historical data...
Loading historical data...

Documentation

Showing up to 5 results
|